Flag for Germany Weather past 2 weeks in Ellwangen (Jagst), Baden-Württemberg, Germany

Now
29 °F

Overcast.


Feels Like: 23 °F
Forecast: 23 / 32 °F
Wind: 6 mph from West

Location: Stoetten

Current Time: Jan 31, 2015 at 10:22:58 PM

Latest Report: Jan 31, 2015 at 10:00 PM


Visibility: 14 mi

Pressure: 29.21 "Hg

Humidity: 89%

Dew point: 26 °F

Location of Ellwangen (Jagst)Location

Historic Weather in Ellwangen (Jagst) — Graph

°F

Ellwangen (Jagst) temperature yesterday

Maximum temperature yesterday: 32 °F (at 12:00 AM)
Minimum temperature yesterday: 25 °F (at 11:00 AM)
Average temperature yesterday: 28 °F

Past Weeks' High & Low Weather Summary

 TemperatureHumidityPressure
High39 °F (Jan 16, 9:00 PM)100% (Jan 16, 10:00 PM)30.46 "Hg (Jan 16, 10:00 PM)
Low23 °F (Jan 31, 9:00 AM)75% (Jan 31, 4:00 PM)28.79 "Hg (Jan 30, 2:00 AM)
Average29 °F96%29.90 "Hg
* Reported Jan 16 9:00 PM — Jan 31 9:00 PM, Ellwangen (Jagst), Weather by CustomWeather, © 2014

Note: Actual official high and low records may vary slightly from our data, if they occured in-between our weather recording intervals... More about our weather records

Advertising

Ellwangen (Jagst) weather history for previous 24 hours

 ConditionsComfort  
Time TempWeatherWind HumidityBarometerVisibility
9:00 PM
Jan 31
28 °FOvercast.6 mph91%29.18 "Hg14 mi
8:00 PM28 °FSnow flurries. Overcast.5 mph92%29.18 "Hg14 mi
7:00 PM28 °FLight snow. Overcast.6 mph90%29.18 "Hg5 mi
6:00 PM28 °FOvercast.2 mph83%29.15 "Hg34 mi
5:00 PM29 °FOvercast.2 mph76%29.12 "Hg37 mi
4:00 PM30 °FOvercast.2 mph75%29.12 "Hg43 mi
3:00 PM28 °FOvercast.5 mph77%29.12 "Hg43 mi
2:00 PM29 °FSnow flurries. Overcast.5 mph79%29.12 "Hg43 mi
1:00 PM29 °FPartly sunny.5 mph82%29.12 "Hg43 mi
12:00 PM29 °FOvercast.3 mph81%29.12 "Hg43 mi
11:00 AM28 °FOvercast.3 mph82%29.12 "Hg47 mi
10:00 AM25 °FPartly sunny.3 mph86%29.12 "Hg34 mi
9:00 AM23 °FScattered clouds.5 mph95%29.12 "Hg11 mi
8:00 AM26 °FPartly sunny.9 mph92%29.06 "Hg6 mi
7:00 AM27 °FLow clouds.9 mph96%29.06 "Hg5 mi
6:00 AM27 °FLight snow. Overcast.9 mph92%29.03 "Hg6 mi
5:00 AM27 °FLight snow. Overcast.7 mph93%29.03 "Hg6 mi
4:00 AM26 °FLow clouds.7 mph96%29.03 "Hg4 mi
3:00 AM26 °FLow clouds.7 mph96%29.03 "Hg17 mi
2:00 AM26 °FLow clouds.7 mph97%29.00 "Hg5 mi
1:00 AM26 °FSnow flurries. Low clouds.5 mph98%29.00 "Hg1 mi
12:00 AM26 °FLight snow. Low clouds.5 mph98%29.00 "Hg0 mi
11:00 PM
Jan 30
26 °FLight snow. Low clouds.3 mph97%28.97 "Hg3 mi
10:00 PM26 °FSnow. Low clouds.5 mph96%28.94 "Hg0 mi
Weather by CustomWeather, © 2014

See weather overviewHow to use our weather pages